Home   Weather   Fort Lauderdale   Past weeks

Flag for USA Past Weather in Fort Lauderdale, Florida, USA — Yesterday and Last 2 Weeks

Now
84 °F

Passing clouds.


Feels Like: 94 °F
Forecast: 84 / 90 °F
Wind: 8 mph from Southeast

Location: Fort Lauderdale / Hollywood International Airport

Current Time: Jul 26, 2017 at 6:53:23 am

Latest Report: Jul 26, 2017 at 5:53 am


Visibility: 10 mi

Pressure: 30.05 "Hg

Humidity: 80%

Dew Point: 77 °F

Location of Fort LauderdaleLocation

Past Weather in Fort Lauderdale — Graph

°F

Fort Lauderdale Temperature Yesterday

Maximum temperature yesterday: 92 °F (at 1:53 pm)
Minimum temperature yesterday: 81 °F (at 6:53 am)
Average temperature yesterday: 86 °F

High & Low Weather Summary for the Past Weeks

 TemperatureHumidityPressure
High102 °F (Jul 17, 1:53 pm)100% (Jul 16, 10:07 am)30.15 "Hg (Jul 16, 10:07 am)
Low72 °F (Jul 21, 12:58 pm)42% (Jul 17, 1:53 pm)29.94 "Hg (Jul 16, 3:53 am)
Average84 °F78%30.05 "Hg
* Reported Jul 11 4:53 am — Jul 26 4:53 am, Fort Lauderdale. Weather by CustomWeather, © 2017

Note: Actual official high and low records may vary slightly from our data, if they occured in-between our weather recording intervals... More about our weather records

Advertising

Fort Lauderdale Weather History for the Previous 24 Hours

Scroll right to see more
 ConditionsComfort  
Time TempWeatherWind HumidityBarometerVisibility
4:53 am
Wed, Jul 26
84 °FPassing clouds.9 mph83%30.05 "Hg10 mi
3:53 am84 °FPassing clouds.9 mph80%30.06 "Hg10 mi
2:53 am84 °FPassing clouds.8 mph80%30.07 "Hg10 mi
1:53 am84 °FPassing clouds.6 mph83%30.09 "Hg10 mi
12:53 am85 °FPartly cloudy.3 mph80%30.11 "Hg10 mi
11:53 pm
Tue, Jul 25
85 °FPartly cloudy.No wind80%30.11 "Hg10 mi
10:53 pm85 °FPassing clouds.8 mph80%30.10 "Hg10 mi
9:53 pm85 °FPartly cloudy.9 mph80%30.09 "Hg10 mi
8:53 pm86 °FPartly cloudy.10 mph75%30.07 "Hg10 mi
7:53 pm86 °FPartly sunny.8 mph75%30.07 "Hg10 mi
6:53 pm87 °FPartly sunny.8 mph69%30.08 "Hg10 mi
5:53 pm87 °FPartly sunny.10 mph72%30.07 "Hg10 mi
4:53 pm88 °FBroken clouds.10 mph70%30.09 "Hg10 mi
3:53 pm87 °FBroken clouds.6 mph69%30.11 "Hg10 mi
2:53 pm90 °FPartly sunny.13 mph68%30.09 "Hg10 mi
1:53 pm92 °FPartly sunny.9 mph58%30.11 "Hg10 mi
12:53 pm91 °FPartly sunny.10 mph64%30.11 "Hg10 mi
11:53 am89 °FPartly sunny.8 mph70%30.13 "Hg10 mi
10:53 am89 °FPartly sunny.8 mph70%30.13 "Hg10 mi
9:53 am88 °FPartly sunny.8 mph70%30.12 "Hg10 mi
8:53 am86 °FScattered clouds.5 mph77%30.11 "Hg10 mi
7:53 am84 °FPartly sunny.No wind88%30.11 "Hg10 mi
6:53 am81 °FScattered clouds.No wind91%30.10 "Hg10 mi
Weather by CustomWeather, © 2017

See weather overviewHow to use our weather pages